User: anonymous   Login
Location: Unspecified
(0.0000°N, 0.0000°E)
Time: 18:59:55
(UTC+00:00)
Language:

STARLINK-35235 - Orbit

View from above orbital plane
View from above orbital plane
View from above satellite
View from above satellite

Ground track
Ground track

The orbit is defined by the following mean orbital elements,

1 65682U          26145.25498402 +.00000000 +00000-0 +10111-2 0 00008
2 65682  53.1594 348.7871 0002118  67.7255 292.3972 15.34402363    03
Epoch (UTC): 25 May 2026 06:07:10
Eccentricity: 0.0002118
inclination: 53.1594°
perigee height: 461 km
apogee height: 464 km
right ascension of ascending node: 348.7871°
argument of perigee: 67.7255°
revolutions per day: 15.34402363
mean anomaly at epoch: 292.3972°

The dashed part of the orbit path shows where the satellite is in the earth's shadow,  

DLR